Location: Unspecified
(50.7693°N, 0.0000°E)
Time: 05:11:25
(UTC+00:00)

Transit 2A - Pass Details

Date: 26 June 2019
Orbit: 596 x 962 km, 66.7° (Epoch: 16 August)

Event Time Altitude Azimuth Distance (km) Brightness Sun altitude
Exits shadow 23:20:48 17° 202° (SSW) 2,236 7.9 -15.3°
Maximum altitude 23:25:49 69° 122° (ESE) 1,019 6.4 -15.4°
Drops below altitude 10° 23:31:58 10° 41° (NE) 2,623 9.3 -15.6°
Sets 23:34:26 0° 39° (NE) 3,528 10.1 -15.6°
